WZZ355 EGKK-EPWA

Flight info

Callsign WZZ355
Flight time N/A
Altitude 35000
Route FRANE M604 GASBA M197 REDFA DCT TACHA DCT GARLU DCT ALUKA DCT MOLIL DCT VEMAL P851 BIMPA
Aircraft A21N/M-SDE2E3FGHIRWXY/LB1

Departure

Time 2026-05-06 12:49
Airport London Gatwick Airport (EGKK)

Arrival

Time N/A
Airport Warsaw Chopin Airport (EPWA)
Time Latitude Longitude Altitude Speed Heading
2026-05-06 12:29 51.15458 -0.17083 215 ft 0 kts 348°
2026-05-06 12:39 51.15449 -0.17079 214 ft 2 kts 335°
2026-05-06 12:39 51.15435 -0.17065 210 ft 2 kts 312°
2026-05-06 12:39 51.15427 -0.17042 213 ft 2 kts 284°
2026-05-06 12:40 51.15425 -0.17016 208 ft 2 kts 267°
2026-05-06 12:40 51.15427 -0.16993 208 ft 1 kts 259°
2026-05-06 12:40 51.15427 -0.16987 208 ft 0 kts 258°
2026-05-06 12:42 51.15425 -0.17004 212 ft 6 kts 258°
2026-05-06 12:43 51.15407 -0.17119 210 ft 15 kts 252°
2026-05-06 12:43 51.15366 -0.17308 211 ft 18 kts 251°
2026-05-06 12:43 51.15299 -0.17451 216 ft 16 kts 260°
2026-05-06 12:43 51.15279 -0.17613 209 ft 15 kts 258°
2026-05-06 12:44 51.15255 -0.17800 214 ft 20 kts 258°
2026-05-06 12:44 51.15221 -0.18038 211 ft 24 kts 257°
2026-05-06 12:44 51.15181 -0.18327 212 ft 29 kts 259°
2026-05-06 12:44 51.15139 -0.18661 210 ft 33 kts 257°
2026-05-06 12:45 51.15090 -0.19031 215 ft 35 kts 258°
2026-05-06 12:45 51.15036 -0.19428 213 ft 38 kts 257°
2026-05-06 12:45 51.14915 -0.20296 209 ft 42 kts 257°
2026-05-06 12:46 51.14852 -0.20761 208 ft 42 kts 257°
2026-05-06 12:46 51.14826 -0.20941 216 ft 7 kts 258°
2026-05-06 12:46 51.14815 -0.21024 211 ft 11 kts 258°
2026-05-06 12:46 51.14780 -0.21204 207 ft 23 kts 253°
2026-05-06 12:47 51.14723 -0.21397 215 ft 13 kts 187°
2026-05-06 12:47 51.14676 -0.21370 210 ft 3 kts 147°
2026-05-06 12:47 51.14636 -0.21334 212 ft 0 kts 163°
2026-05-06 12:47 51.14617 -0.21325 214 ft 6 kts 163°
2026-05-06 12:48 51.14564 -0.21295 214 ft 10 kts 149°
2026-05-06 12:48 51.14517 -0.21161 214 ft 18 kts 90°
2026-05-06 12:48 51.14562 -0.20838 211 ft 54 kts 78°
2026-05-06 12:48 51.14686 -0.19952 216 ft 111 kts 77°
2026-05-06 12:49 51.14903 -0.18413 226 ft 168 kts 76°
2026-05-06 12:49 51.15132 -0.16523 530 ft 192 kts 75°
2026-05-06 12:49 51.15430 -0.14404 1239 ft 193 kts 74°
2026-05-06 12:49 51.15719 -0.12361 2180 ft 189 kts 72°
2026-05-06 12:50 51.16027 -0.10200 2590 ft 211 kts 72°
2026-05-06 12:50 51.16368 -0.07791 2988 ft 232 kts 73°
2026-05-06 12:50 51.16716 -0.05255 3490 ft 242 kts 75°
2026-05-06 12:50 51.16878 -0.02514 4084 ft 248 kts 85°
2026-05-06 12:51 51.16860 0.00217 4748 ft 253 kts 88°
2026-05-06 12:51 51.16805 0.03097 5232 ft 266 kts 88°
2026-05-06 12:51 51.16743 0.06069 5959 ft 270 kts 89°
2026-05-06 12:51 51.16680 0.09086 6682 ft 275 kts 89°
2026-05-06 12:52 51.16620 0.12151 7424 ft 277 kts 88°
2026-05-06 12:52 51.16571 0.15238 8171 ft 280 kts 87°
2026-05-06 12:52 51.16563 0.18361 8909 ft 284 kts 87°
2026-05-06 12:52 51.16569 0.21526 9646 ft 288 kts 86°
2026-05-06 12:53 51.16576 0.24746 10325 ft 292 kts 86°
2026-05-06 12:53 51.16583 0.28019 10986 ft 296 kts 86°
2026-05-06 12:53 51.16588 0.31328 11688 ft 300 kts 88°
2026-05-06 12:53 51.16591 0.34674 12366 ft 304 kts 88°
2026-05-06 12:54 51.16595 0.38078 12886 ft 309 kts 88°
2026-05-06 12:54 51.16597 0.41514 13040 ft 310 kts 89°
2026-05-06 12:54 51.16598 0.44949 13052 ft 310 kts 89°
2026-05-06 12:54 51.16646 0.48358 13049 ft 311 kts 82°
2026-05-06 12:55 51.17199 0.51650 13047 ft 306 kts 60°
2026-05-06 12:55 51.18470 0.54293 13048 ft 299 kts 37°
2026-05-06 12:55 51.20260 0.55912 13053 ft 294 kts 17°
2026-05-06 12:55 51.22091 0.56736 13042 ft 296 kts 12°
2026-05-06 12:56 51.24170 0.57493 12921 ft 297 kts 10°
2026-05-06 12:56 51.26191 0.58212 13015 ft 298 kts 10°
2026-05-06 12:56 51.28227 0.58944 13582 ft 302 kts 11°
2026-05-06 12:56 51.30264 0.59689 14248 ft 304 kts 11°
2026-05-06 12:57 51.32333 0.60454 14894 ft 306 kts 11°
2026-05-06 12:57 51.34423 0.61231 15444 ft 310 kts 11°
2026-05-06 12:57 51.36534 0.62020 16038 ft 313 kts 11°
2026-05-06 12:57 51.38667 0.62819 16612 ft 316 kts 11°
2026-05-06 12:58 51.40103 0.63357 16837 ft 325 kts 11°
2026-05-06 12:58 51.42357 0.64203 17065 ft 340 kts 11°
2026-05-06 12:58 51.44709 0.65090 17287 ft 354 kts 11°
2026-05-06 12:58 51.47155 0.66016 17514 ft 368 kts 11°
2026-05-06 12:59 51.49695 0.66982 17732 ft 382 kts 11°
2026-05-06 12:59 51.52328 0.67983 17948 ft 394 kts 11°
2026-05-06 12:59 51.55041 0.69016 18163 ft 407 kts 12°
2026-05-06 12:59 51.57834 0.70082 18423 ft 416 kts 12°
2026-05-06 13:00 51.60662 0.71162 18817 ft 420 kts 11°
2026-05-06 13:00 51.63483 0.72240 19249 ft 423 kts 11°
2026-05-06 13:00 51.66360 0.73337 19690 ft 426 kts 12°
2026-05-06 13:00 51.69262 0.74446 20128 ft 429 kts 11°
2026-05-06 13:01 51.72184 0.75563 20552 ft 432 kts 12°
2026-05-06 13:01 51.75119 0.76686 21012 ft 435 kts 11°
2026-05-06 13:01 51.78078 0.77820 21434 ft 438 kts 11°
2026-05-06 13:01 51.81014 0.79218 21880 ft 444 kts 23°
2026-05-06 13:02 51.83663 0.81857 22261 ft 450 kts 38°
2026-05-06 13:02 51.85887 0.85450 22727 ft 454 kts 51°
2026-05-06 13:02 51.87599 0.89691 23078 ft 459 kts 63°
2026-05-06 13:02 51.88782 0.94497 23520 ft 461 kts 74°
2026-05-06 13:03 51.89394 0.99613 23789 ft 465 kts 85°
2026-05-06 13:03 51.89439 1.04834 24197 ft 464 kts 91°
2026-05-06 13:03 51.89554 1.10073 24530 ft 467 kts 85°
2026-05-06 13:03 51.90049 1.15281 24844 ft 469 kts 78°
2026-05-06 13:04 51.90763 1.20457 25151 ft 471 kts 76°
2026-05-06 13:04 51.91584 1.25613 25466 ft 473 kts 75°
2026-05-06 13:04 51.92472 1.30760 25787 ft 475 kts 74°
2026-05-06 13:04 51.93392 1.35889 26214 ft 473 kts 74°
2026-05-06 13:05 51.94320 1.41000 26650 ft 471 kts 74°
2026-05-06 13:05 51.95242 1.46101 27062 ft 470 kts 74°
2026-05-06 13:05 51.96145 1.51131 27342 ft 472 kts 75°
2026-05-06 13:05 51.97055 1.56248 27635 ft 473 kts 75°
2026-05-06 13:06 51.97959 1.61376 28036 ft 471 kts 75°
2026-05-06 13:06 51.98860 1.66515 28466 ft 469 kts 75°
2026-05-06 13:06 51.99720 1.71625 28843 ft 468 kts 76°
2026-05-06 13:06 52.00533 1.76735 29197 ft 467 kts 76°
2026-05-06 13:07 52.01322 1.81843 29549 ft 466 kts 77°
2026-05-06 13:07 52.02092 1.86891 29886 ft 466 kts 77°
2026-05-06 13:07 52.02868 1.91987 30185 ft 465 kts 77°
2026-05-06 13:07 52.03644 1.97077 30445 ft 464 kts 77°
2026-05-06 13:08 52.04420 2.02160 30718 ft 463 kts 77°
2026-05-06 13:08 52.05196 2.07236 30983 ft 462 kts 77°
2026-05-06 13:08 52.05969 2.12303 31234 ft 462 kts 77°
2026-05-06 13:08 52.06741 2.17368 31474 ft 461 kts 77°
2026-05-06 13:09 52.07510 2.22432 31720 ft 461 kts 77°
2026-05-06 13:09 52.08278 2.27505 31925 ft 460 kts 77°
2026-05-06 13:09 52.09039 2.32549 32144 ft 460 kts 77°
2026-05-06 13:09 52.09799 2.37601 32343 ft 460 kts 77°
2026-05-06 13:10 52.10555 2.42644 32558 ft 459 kts 77°
2026-05-06 13:10 52.11311 2.47684 32741 ft 459 kts 76°
2026-05-06 13:10 52.12146 2.52686 32974 ft 457 kts 74°
2026-05-06 13:10 52.13065 2.57656 33146 ft 458 kts 73°
2026-05-06 13:11 52.14021 2.62601 33317 ft 457 kts 73°
2026-05-06 13:11 52.14977 2.67482 33483 ft 458 kts 73°
2026-05-06 13:11 52.15943 2.72437 33642 ft 457 kts 73°
2026-05-06 13:11 52.16895 2.77371 33825 ft 457 kts 73°
2026-05-06 13:12 52.17840 2.82324 33957 ft 456 kts 73°
2026-05-06 13:12 52.18774 2.87264 34104 ft 456 kts 73°
2026-05-06 13:12 52.19702 2.92212 34181 ft 457 kts 73°
2026-05-06 13:12 52.20628 2.97162 34311 ft 456 kts 74°
2026-05-06 13:13 52.21554 3.02133 34406 ft 456 kts 74°
2026-05-06 13:13 52.22462 3.07021 34556 ft 455 kts 74°
2026-05-06 13:13 52.23381 3.11984 34585 ft 457 kts 74°
2026-05-06 13:13 52.24299 3.16947 34723 ft 457 kts 74°
2026-05-06 13:14 52.25205 3.21936 34692 ft 460 kts 77°
2026-05-06 13:14 52.26482 3.32168 34814 ft 461 kts 81°
2026-05-06 13:15 52.27600 3.42489 34932 ft 463 kts 81°
2026-05-06 13:15 52.28671 3.52786 34929 ft 461 kts 82°
2026-05-06 13:16 52.29738 3.63116 34923 ft 460 kts 82°
2026-05-06 13:16 52.30802 3.73456 34924 ft 460 kts 82°
2026-05-06 13:17 52.31858 3.83772 34914 ft 460 kts 82°
2026-05-06 13:17 52.32907 3.94100 34912 ft 460 kts 82°
2026-05-06 13:18 52.33944 4.04420 34904 ft 459 kts 82°
2026-05-06 13:18 52.34965 4.14659 34906 ft 458 kts 82°
2026-05-06 13:19 52.35981 4.24953 34898 ft 458 kts 82°
2026-05-06 13:19 52.36988 4.35248 34898 ft 458 kts 82°
2026-05-06 13:20 52.37986 4.45548 34890 ft 458 kts 83°